Regional Weather Roundup
Issued by NWS

Home | Current Version | Previous Version | Graphics & Text | Print | Product List | Glossary On
Versions: 1 2 3 4 5 6 7 8 9 10 11 12 13 14 15 16 17 18 19 20 21 22 23 24 25 26 27 28 29 30 31 32 33 34 35 36 37 38 39 40 41 42 43 44 45 46 47 48 49 50
000
ASUS45 KABQ 261601
RWRNM
NEW MEXICO REGIONAL WEATHER ROUNDUP
NATIONAL WEATHER SERVICE ALBUQUERQUE NM
1000 AM MDT TUE MAY 26 2015

NOTE: "FAIR" MEANS FEW OR NO CLOUDS BELOW 12,000 FEET AGL WITH NO
       SIGNIFICANT WEATHER OR OBSTRUCTIONS TO VISION.

      THIS PRODUCT IS RELEASED AS TWO VERSIONS.  ONE VERSION NEAR
      THE TOP OF THE HOUR CONTAINING PRELIMINARY DATA FROM ALBUQUERQUE
      AND OTHER STATIONS.  A FINAL VERSION WITH ADDITIONAL DATA IS
      ISSUED ABOUT 10 MINUTES AFTER THE HOUR.

NMZ501-503-504-510>518-261700-
NORTHWEST PLATEAU/NORTHCENTRAL MOUNTAINS

CITY           SKY/WX    TMP DP  RH WIND       PRES   REMARKS
FARMINGTON     MOSUNNY   59  44  57 SE7       30.13S
SANTA FE       SUNNY     60  40  47 W6        30.15F
TAOS           SUNNY     55  36  47 CALM      30.20S

$$
NMZ402-403-502-505>509-261700-
WESTCENTRAL MOUNTAINS/SOUTHWEST MOUNTAINS

CITY           SKY/WX    TMP DP  RH WIND       PRES   REMARKS
GALLUP         SUNNY     58  45  62 W8        30.18F
SILVER CITY    SUNNY     68  36  30 S5        30.18S

$$
NMZ407-409-411-412-261700-
SOUTHERN DESERTS

CITY           SKY/WX    TMP DP  RH WIND       PRES   REMARKS
DEMING         SUNNY     71  35  26 S3        30.12S
ALAMOGORDO     SUNNY     72  37  28 CALM      30.10F
T OR C         SUNNY     68  41  37 VRB5      30.12S

$$
NMZ519>523-261700-
CENTRAL VALLEYS/CENTRAL HIGHLANDS

CITY           SKY/WX    TMP DP  RH WIND       PRES   REMARKS
ALBUQUERQUE    MOSUNNY   62  44  51 CALM      30.15S
DOUBLE EAGLE   MOSUNNY   61  43  51 CALM      30.17S
CLINES CORNERS SUNNY     59  38  45 NW20      30.16R
BELEN          FAIR      62  44  50 CALM      30.15S
SOCORRO        NOT AVBL

$$
NMZ524>526-539-540-261700-
SOUTHCENTRAL MOUNTAINS

CITY           SKY/WX    TMP DP  RH WIND       PRES   REMARKS
RUIDOSO        NOT AVBL

$$
NMZ527>531-261700-
NORTHEAST HIGHLANDS/NORTHEAST PLAINS

CITY           SKY/WX    TMP DP  RH WIND       PRES   REMARKS
LAS VEGAS      SUNNY     60  39  45 VRB6      30.15S
RATON          SUNNY     59  42  53 VRB3      30.11S
CLAYTON        SUNNY     64  47  53 N9        30.07S

$$
NMZ532>537-261700-
EASTCENTRAL PLAINS

CITY           SKY/WX    TMP DP  RH WIND       PRES   REMARKS
TUCUMCARI      SUNNY     67  51  56 N8        30.03S
CANNON AFB     NOT AVBL
CLOVIS AIRPORT SUNNY     66  50  55 N7        30.04S

$$
NMZ028-029-538-261700-
SOUTHEAST PLAINS

CITY           SKY/WX    TMP DP  RH WIND       PRES   REMARKS
ROSWELL        SUNNY     76  41  28 CALM      30.03F
ARTESIA        SUNNY     75  39  27 CALM      30.05F
CARLSBAD       SUNNY     77  45  32 E8        30.03S
HOBBS          SUNNY     72  48  43 SW3       30.06S


$$


USA.gov is the U.S. government's official web portal to all federal, state and local government web resources and services.